Weather History for Lexington, NE

Change the Weather History Date:

Wednesday, March 26, 2014

  Actual Average Record
Temperature  
Mean Temperature 52 °F -  
Max Temperature 72 °F 53 °F 140 °F (1999)
Min Temperature 31 °F 29 °F 10 °F (2013)
Degree Days  
Heating Degree Days 14    
Growing Degree Days 2 (Base 50)    
Moisture  
Dew Point 30 °F    
Average Humidity 55    
Maximum Humidity 88    
Minimum Humidity 24    
Precipitation  
Precipitation 0.00 in - - ()
Sea Level Pressure  
Sea Level Pressure 29.60 in    
Wind  
Wind Speed 18 mph (SSE)    
Max Wind Speed 32 mph    
Max Gust Speed 41 mph    
Visibility 10 miles    
Events Thunderstorm    
Averages and records for this station are not official NWS values.
T = Trace of Precipitation, MM = Missing Value Source: NWS Daily Summary

Daily Weather History Graph

Daily Weather History Graph

Search for Another Location

Airport:

Trip Planner

Search our weather history database for the weather conditions in past years. The results will help you decide how hot, cold, wet, or windy it might be!

Date:

Astronomy

Mar. 26, 2014 Rise Set
Actual Time 7:32 AM CDT 7:57 PM CDT
Civil Twilight 7:05 AM CDT 8:25 PM CDT
Nautical Twilight 6:32 AM CDT 8:57 PM CDT
Astronomical Twilight 5:59 AM CDT 9:30 PM CDT
Moon 4:43 AM CDT (3/26) 3:36 PM CDT (3/26)
Length of Visible Light 13h 20m
Length of Day
12h 25m
Waning Crescent, 21% of the Moon is Illuminated
Mar 26
Waning Crescent
Mar 30
New
Apr 7
First Quarter
Apr 15
Full
Apr 22
Last Quarter

Hourly Weather History & Observations

Time (CDT) Temp. Windchill Dew Point Humidity Pressure Visibility Wind Dir Wind Speed Gust Speed Precip Events Conditions
12:15 AM 32.5 °F 23.2 °F 16.5 °F 52% 29.97 in 10.0 mi SE 12.7 mph 18.4 mph N/A   Clear
12:35 AM 32.4 °F 23.0 °F 16.2 °F 51% 29.96 in 10.0 mi SE 12.7 mph 18.4 mph N/A   Clear
12:55 AM 32.5 °F 23.2 °F 15.8 °F 50% 29.95 in 10.0 mi SE 12.7 mph 19.6 mph N/A   Clear
1:15 AM 32.2 °F 22.7 °F 16.2 °F 52% 29.93 in 10.0 mi SE 12.7 mph 17.3 mph N/A   Clear
1:35 AM 32.0 °F 22.5 °F 16.7 °F 53% 29.92 in 10.0 mi SE 12.7 mph - N/A   Clear
1:55 AM 32.0 °F 22.5 °F 17.6 °F 55% 29.90 in 10.0 mi SE 12.7 mph - N/A   Clear
2:15 AM 32.4 °F 22.5 °F 18.9 °F 58% 29.89 in 10.0 mi SSE 13.8 mph - N/A   Clear
2:35 AM 32.9 °F 22.8 °F 20.3 °F 60% 29.87 in 10.0 mi SSE 15.0 mph - N/A   Clear
2:55 AM 32.9 °F 22.4 °F 21.6 °F 63% 29.85 in 10.0 mi SSE 16.1 mph - N/A   Clear
3:15 AM 32.9 °F 22.4 °F 22.5 °F 65% 29.84 in 10.0 mi SSE 16.1 mph 20.7 mph N/A   Clear
3:35 AM 33.1 °F 22.2 °F 23.0 °F 66% 29.83 in 10.0 mi SSE 17.3 mph - N/A   Clear
3:55 AM 32.9 °F 22.4 °F 23.2 °F 67% 29.82 in 10.0 mi SSE 16.1 mph - N/A   Clear
4:15 AM 32.2 °F 23.2 °F 23.4 °F 70% 29.80 in 10.0 mi SSE 11.5 mph - N/A   Clear
4:35 AM 32.0 °F 22.5 °F 23.4 °F 70% 29.79 in 10.0 mi SSE 12.7 mph - N/A   Clear
4:55 AM 31.8 °F 22.8 °F 23.4 °F 71% 29.78 in 10.0 mi SE 11.5 mph - N/A   Clear
5:15 AM 31.6 °F 22.6 °F 23.5 °F 72% 29.77 in 10.0 mi SSE 11.5 mph - N/A   Clear
5:35 AM 31.6 °F 22.1 °F 23.7 °F 73% 29.76 in 10.0 mi SSE 12.7 mph - N/A   Clear
5:55 AM 31.6 °F 22.6 °F 23.7 °F 73% 29.75 in 10.0 mi SE 11.5 mph - N/A   Clear
6:15 AM 31.8 °F 21.8 °F 23.9 °F 73% 29.74 in 10.0 mi SE 13.8 mph - N/A   Clear
6:35 AM 31.8 °F 22.3 °F 23.9 °F 73% 29.73 in 10.0 mi SSE 12.7 mph - N/A   Clear
6:55 AM 32.0 °F 22.5 °F 23.9 °F 72% 29.73 in 10.0 mi SE 12.7 mph - N/A   Clear
7:15 AM 31.8 °F 21.8 °F 23.9 °F 73% 29.71 in 10.0 mi SSE 13.8 mph - N/A   Clear
7:35 AM 31.8 °F 21.4 °F 24.3 °F 74% 29.70 in 10.0 mi SSE 15.0 mph - N/A   Clear
7:55 AM 32.0 °F 22.5 °F 24.4 °F 74% 29.70 in 10.0 mi SSE 12.7 mph - N/A   Clear
8:15 AM 32.9 °F 23.7 °F 24.8 °F 72% 29.69 in 10.0 mi SSE 12.7 mph - N/A   Clear
8:35 AM 34.7 °F 25.5 °F 25.3 °F 69% 29.68 in 10.0 mi SSE 13.8 mph - N/A   Clear
8:55 AM 36.9 °F 28.2 °F 25.7 °F 64% 29.67 in 10.0 mi SSE 13.8 mph 19.6 mph N/A   Clear
9:15 AM 40.1 °F 30.7 °F 25.5 °F 56% 29.66 in 10.0 mi South 19.6 mph 24.2 mph N/A   Clear
9:35 AM 41.7 °F 32.9 °F 25.3 °F 52% 29.65 in 10.0 mi South 19.6 mph 26.5 mph N/A   Clear
9:55 AM 44.1 °F 35.7 °F 25.5 °F 48% 29.64 in 10.0 mi South 20.7 mph 27.6 mph N/A   Clear
10:15 AM 45.9 °F 37.4 °F 25.3 °F 45% 29.63 in 10.0 mi South 24.2 mph 28.8 mph N/A   Clear
10:35 AM 47.7 °F - 25.2 °F 41% 29.63 in 10.0 mi South 25.3 mph 29.9 mph N/A   Clear
10:50 AM 49.3 °F - 25.7 °F 40% 29.63 in 10.0 mi South 20.7 mph 32.2 mph N/A   Clear
11:15 AM 51.1 °F - 25.7 °F 37% 29.62 in 10.0 mi South 23.0 mph 26.5 mph N/A   Clear
11:35 AM 53.6 °F - 26.1 °F 35% 29.60 in 10.0 mi South 21.9 mph 27.6 mph N/A   Clear
11:55 AM 55.0 °F - 26.6 °F 33% 29.59 in 10.0 mi South 20.7 mph 27.6 mph N/A   Clear
12:15 PM 57.4 °F - 27.9 °F 32% 29.57 in 10.0 mi SSW 20.7 mph 28.8 mph N/A   Clear
12:35 PM 59.7 °F - 28.8 °F 31% 29.55 in 10.0 mi South 24.2 mph 27.6 mph N/A   Clear
12:50 PM 60.8 °F - 29.3 °F 30% 29.55 in 10.0 mi South 23.0 mph 31.1 mph N/A   Clear
1:15 PM 63.0 °F - 30.2 °F 29% 29.53 in 10.0 mi South 24.2 mph 32.2 mph N/A   Clear
1:35 PM 65.1 °F - 31.1 °F 28% 29.52 in 10.0 mi South 25.3 mph 33.4 mph N/A   Clear
1:55 PM 66.6 °F - 31.1 °F 27% 29.50 in 10.0 mi SSW 25.3 mph 33.4 mph N/A   Clear
2:15 PM 68.2 °F - 31.8 °F 26% 29.48 in 10.0 mi SSW 28.8 mph 36.8 mph N/A   Clear
2:35 PM 69.4 °F - 31.8 °F 25% 29.47 in 10.0 mi SSW 27.6 mph 34.5 mph N/A   Clear
2:55 PM 70.7 °F - 32.4 °F 24% 29.45 in 10.0 mi South 26.5 mph 33.4 mph N/A   Clear
3:15 PM 71.2 °F - 33.1 °F 25% 29.44 in 10.0 mi South 31.1 mph 36.8 mph N/A   Clear
3:35 PM 72.1 °F - 34.9 °F 26% 29.42 in 10.0 mi South 27.6 mph 35.7 mph N/A   Clear
3:55 PM 71.1 °F - 35.8 °F 27% 29.42 in 10.0 mi South 29.9 mph 38.0 mph N/A   Clear
4:15 PM 70.9 °F - 36.7 °F 29% 29.41 in 7.0 mi South 29.9 mph 40.3 mph N/A   Scattered Clouds
4:35 PM 69.3 °F - 36.3 °F 30% 29.41 in 7.0 mi South 29.9 mph 40.3 mph N/A   Mostly Cloudy
4:55 PM 69.1 °F - 36.3 °F 30% 29.40 in 7.0 mi South 32.2 mph 41.4 mph N/A   Scattered Clouds
5:10 PM 68.0 °F - 37.2 °F 32% 29.40 in 7.0 mi South 24.2 mph 35.7 mph N/A   Scattered Clouds
5:35 PM 66.6 °F - 37.8 °F 35% 29.40 in 10.0 mi South 31.1 mph 38.0 mph N/A   Clear
5:55 PM 64.9 °F - 38.7 °F 38% 29.40 in 10.0 mi South 29.9 mph 36.8 mph N/A   Clear
6:15 PM 63.1 °F - 39.2 °F 41% 29.41 in 10.0 mi SSE 29.9 mph 36.8 mph N/A   Clear
6:30 PM 61.9 °F - 39.6 °F 44% 29.41 in 10.0 mi SSE 28.8 mph 34.5 mph N/A   Clear
6:55 PM 59.5 °F - 40.1 °F 49% 29.41 in 10.0 mi South 24.2 mph 35.7 mph N/A   Clear
7:15 PM 56.8 °F - 40.1 °F 54% 29.41 in 10.0 mi South 25.3 mph 28.8 mph N/A   Clear
7:35 PM 53.8 °F - 39.9 °F 59% 29.40 in 10.0 mi South 26.5 mph 31.1 mph N/A   Clear
7:55 PM 51.6 °F - 39.7 °F 64% 29.40 in 10.0 mi South 24.2 mph 34.5 mph N/A   Clear
8:15 PM 50.0 °F - 39.7 °F 68% 29.40 in 10.0 mi South 27.6 mph 36.8 mph N/A   Clear
8:35 PM 49.1 °F - 40.3 °F 72% 29.40 in 10.0 mi SSE 21.9 mph 34.5 mph N/A   Clear
8:55 PM 47.7 °F - 40.6 °F 77% 29.40 in 10.0 mi South 27.6 mph 33.4 mph N/A   Clear
9:10 PM 47.3 °F - 41.2 °F 79% 29.40 in 10.0 mi South 28.8 mph 34.5 mph N/A   Scattered Clouds
9:35 PM 47.8 °F - 42.1 °F 80% 29.40 in 10.0 mi South 24.2 mph 34.5 mph N/A   Overcast
9:55 PM 47.7 °F - 42.4 °F 82% 29.40 in 10.0 mi South 27.6 mph 35.7 mph N/A   Overcast
10:15 PM 47.5 °F - 42.8 °F 84% 29.40 in 10.0 mi South 24.2 mph 33.4 mph N/A   Overcast
10:35 PM 47.3 °F - 42.8 °F 84% 29.40 in 10.0 mi South 20.7 mph 32.2 mph N/A   Overcast
10:55 PM 46.8 °F - 43.0 °F 87% 29.39 in 7.0 mi SSE 21.9 mph 29.9 mph N/A   Overcast
11:15 PM 46.4 °F 38.1 °F 43.2 °F 88% 29.38 in 7.0 mi South 24.2 mph 29.9 mph N/A Thunderstorm Overcast
11:35 PM 46.6 °F - 43.3 °F 88% 29.38 in 7.0 mi South 24.2 mph - N/A   Overcast
11:55 PM 46.6 °F - 43.3 °F 88% 29.38 in 7.0 mi South 19.6 mph 28.8 mph N/A   Overcast